Retour au catalogue

STARLINK-35940

ActifCommunicationsVLEO
NORAD 66617·PAYLOAD·🇺🇸 United States

Lancé Nov 23, 2025 depuis Vandenberg Space Force Base

Loading…

Prochains Passages (prochaines 24 heures)

TLE

FraisSource: CelesTrak SupGP

Époque: Sep 15, 2026, 02:56 UTC

1 66617C 25271A   26258.12270833  .00063786  00000+0  18844-2 0  2586
2 66617  53.1597 338.7259 0001188  89.9288  79.1496 15.34361647    14

Suivez STARLINK-35940 en temps réel avec AllMySat

Download on the App Store